Date,TemperatureHighF,TemperatureAvgF,TemperatureLowF,DewpointHighF,DewpointAvgF,DewpointLowF,HumidityHigh,HumidityAvg,HumidityLow,PressureMaxIn,PressureMinIn,WindSpeedMaxMPH,WindSpeedAvgMPH,GustSpeedMaxMPH,PrecipitationSumIn
2013-1-1,36,30,23,35,28,20,99,95,88,30.00,29.80,6,1,10,0.01
2013-1-2,40,28,22,26,18,13,92,70,44,30.02,29.93,8,1,11,0.01
2013-1-3,45,31,19,30,22,14,88,69,46,30.18,30.00,8,2,10,0.00
2013-1-4,50,40,29,28,22,17,90,52,31,30.22,30.11,9,3,11,0.00
2013-1-5,41,37,33,32,30,29,85,78,69,30.00,29.94,13,5,13,0.00
2013-1-6,49,36,25,30,22,12,90,60,25,30.11,29.99,13,5,13,0.00
2013-1-7,57,39,28,28,22,17,70,53,26,30.11,29.89,14,4,14,0.00
2013-1-8,62,44,32,47,34,21,99,69,44,29.99,29.83,13,3,13,0.24
2013-1-9,52,48,45,47,44,38,99,85,64,30.12,29.99,28,6,28,0.04
2013-1-10,54,48,43,52,46,38,99,94,67,30.00,29.62,26,9,26,0.38
2013-1-11,67,55,45,46,44,42,97,71,44,29.68,29.55,22,7,22,0.00
2013-1-12,56,42,28,50,36,24,92,80,48,29.74,29.55,19,4,19,0.25
2013-1-13,28,21,14,24,15,8,86,78,65,30.09,29.71,0,0,0,0.00
2013-1-14,36,22,12,14,9,4,79,59,31,30.20,30.05,11,1,11,0.01
2013-1-15,35,24,17,18,12,7,81,63,37,30.07,29.90,13,4,13,0.00
2013-1-16,44,28,15,23,14,10,84,57,30,29.95,29.85,14,3,14,0.00
2013-1-17,50,36,26,32,23,13,79,61,43,30.24,29.95,14,4,14,0.00
2013-1-18,59,42,27,30,24,18,85,55,24,30.26,29.98,16,5,16,0.00
2013-1-19,64,50,38,36,32,25,74,52,32,29.98,29.85,17,6,17,0.00
2013-1-20,62,47,29,35,26,15,75,45,26,30.03,29.90,16,5,16,0.00
2013-1-21,42,28,20,17,11,3,65,50,24,30.14,30.02,12,4,13,0.00
2013-1-22,49,33,20,25,18,11,71,55,36,30.08,29.99,12,6,12,0.00
2013-1-23,62,45,31,44,34,20,83,67,50,30.04,29.92,14,4,14,0.00
2013-1-24,42,35,29,30,18,10,72,50,35,30.09,29.89,17,8,17,0.00
2013-1-25,52,36,27,34,28,21,97,74,45,30.02,29.87,11,3,11,0.00
2013-1-26,62,46,32,28,22,15,76,43,19,30.04,29.91,16,5,16,0.00
2013-1-27,59,53,45,56,48,29,92,83,51,29.92,29.73,19,8,19,0.00
2013-1-28,73,65,58,61,60,55,92,82,63,29.78,29.63,22,9,22,0.00
2013-1-29,68,59,47,63,56,46,99,91,80,29.64,29.27,21,7,21,2.35
2013-1-30,47,31,19,46,27,14,99,83,66,29.82,29.30,30,12,30,0.00
2013-1-31,48,28,16,28,18,2,89,66,42,30.17,29.77,23,5,23,0.00
2013-2-1,43,26,9,14,6,-1,72,45,22,30.19,29.93,17,4,17,0.00
2013-2-2,54,39,27,30,23,10,69,52,33,30.01,29.93,17,5,17,0.00
2013-2-3,57,44,33,29,22,15,73,46,21,30.05,29.76,12,4,12,0.00
2013-2-4,60,48,37,46,36,23,91,64,41,29.77,29.62,18,5,18,0.28
2013-2-5,66,48,32,46,34,25,88,61,24,29.85,29.70,18,4,18,0.00
2013-2-6,65,51,36,44,36,28,83,58,36,29.90,29.75,14,5,14,0.00
2013-2-7,61,51,42,54,48,40,99,92,69,29.86,29.66,14,5,14,0.21
2013-2-8,55,40,30,40,31,26,91,74,36,30.06,29.86,16,5,16,0.00
2013-2-9,49,38,32,41,32,26,96,79,44,29.99,29.64,17,7,17,0.17
2013-2-10,62,51,39,53,38,24,99,66,27,29.82,29.43,30,11,30,0.41
2013-2-11,55,40,28,28,23,15,80,55,23,29.96,29.82,12,4,14,0.00
2013-2-12,43,38,32,33,28,24,95,69,56,29.92,29.68,11,4,11,0.18
2013-2-13,50,38,31,38,31,28,99,79,44,29.78,29.71,20,5,20,0.07
2013-2-14,61,44,33,34,30,24,75,58,34,29.93,29.73,13,5,13,0.00
2013-2-15,42,34,22,30,17,4,79,54,24,30.08,29.93,17,6,17,0.00
2013-2-16,42,31,20,22,16,9,84,56,33,30.07,29.89,17,5,17,0.00
2013-2-17,63,45,31,34,21,10,51,39,22,29.89,29.63,15,5,15,0.00
2013-2-18,57,49,32,53,39,23,95,70,42,29.88,29.40,30,13,30,0.07
2013-2-19,46,33,20,23,16,12,78,52,29,30.07,29.88,21,5,21,0.00
2013-2-20,32,29,26,28,17,8,90,60,41,30.07,29.82,18,6,18,0.05
2013-2-21,33,30,26,33,28,19,99,92,72,29.84,29.47,13,0,13,0.00
2013-2-22,36,27,20,32,20,15,97,76,51,29.87,29.63,14,2,14,0.21
2013-2-23,46,30,18,24,19,13,88,66,37,29.87,29.72,13,3,13,0.01
2013-2-24,59,41,27,35,28,21,81,64,34,29.77,29.62,14,6,14,0.00
2013-2-25,42,37,33,40,32,27,98,81,64,29.67,29.21,21,8,21,0.41
2013-2-26,33,32,30,33,31,30,99,97,93,29.64,29.15,19,4,19,0.05
2013-2-27,37,32,30,32,28,24,97,85,72,29.83,29.62,27,10,27,0.06
2013-2-28,36,30,26,27,24,22,88,78,62,29.94,29.81,17,8,17,0.00
2013-3-1,31,28,25,23,20,16,84,71,59,30.01,29.91,15,7,15,0.00
2013-3-2,37,28,23,21,17,13,84,66,39,30.06,29.96,17,5,17,0.00
2013-3-3,61,42,23,31,23,15,78,49,28,29.96,29.59,17,5,17,0.00
2013-3-4,69,54,42,47,38,30,85,55,38,29.62,29.41,21,6,21,0.00
2013-3-5,44,37,29,34,25,16,96,64,42,30.06,29.62,31,13,31,0.11
2013-3-6,50,35,21,26,19,15,77,55,30,30.15,30.00,18,5,18,0.00
2013-3-7,65,48,32,32,25,18,75,44,18,30.04,29.92,14,5,14,0.00
2013-3-8,66,51,38,38,34,30,82,55,32,30.02,29.83,14,7,14,0.00
2013-3-9,70,58,51,57,47,36,99,67,38,29.85,29.50,20,7,20,1.55
2013-3-10,56,44,28,56,43,26,99,98,84,29.71,29.47,28,8,28,0.92
2013-3-11,44,32,26,29,23,19,93,72,41,29.81,29.66,23,10,23,0.00
2013-3-12,58,42,28,30,24,16,83,53,22,30.08,29.80,21,6,21,0.00
2013-3-13,54,38,24,23,18,8,77,47,19,30.22,30.07,14,3,14,0.00
2013-3-14,71,54,36,42,29,13,62,39,27,30.13,29.89,24,6,24,0.00
2013-3-15,80,65,50,48,44,38,81,51,23,29.91,29.60,23,7,23,0.00
2013-3-16,80,64,48,52,46,40,76,53,34,29.66,29.56,19,6,19,0.00
2013-3-17,47,41,39,41,39,38,99,93,75,29.67,29.47,20,8,20,0.14
2013-3-18,55,45,38,43,37,26,99,77,38,29.83,29.48,16,5,16,0.02
2013-3-19,59,44,32,30,23,15,77,48,21,30.02,29.81,15,4,15,0.00
2013-3-20,47,37,29,30,20,7,90,56,22,30.11,29.88,21,5,21,0.00
2013-3-21,42,33,29,32,19,6,99,62,23,29.88,29.60,15,5,15,0.07
2013-3-22,36,33,30,35,33,30,99,98,97,29.71,29.60,11,4,11,0.25
2013-3-23,38,36,34,38,35,33,99,98,97,29.70,29.49,14,6,14,0.02
2013-3-24,39,32,25,39,29,17,99,89,65,29.87,29.40,34,12,34,0.06
2013-3-25,33,26,21,23,18,14,78,72,58,30.08,29.84,22,10,22,0.00
2013-3-26,46,31,18,24,20,14,90,66,33,30.17,30.06,17,4,17,0.00
2013-3-27,62,53,30,33,24,18,68,34,21,30.08,29.92,12,5,12,0.00
2013-3-28,71,62,49,48,44,28,68,52,39,30.00,29.91,14,6,14,0.00
2013-3-29,72,59,51,56,52,47,99,76,52,29.99,29.89,11,3,11,0.07
2013-3-30,71,59,52,57,54,51,99,86,56,29.91,29.68,17,5,17,0.46
2013-3-31,70,60,49,54,44,31,99,57,26,29.78,29.68,15,5,15,0.06
2013-4-1,66,51,43,43,40,36,91,68,37,29.93,29.76,14,4,14,0.00
2013-4-2,37,35,34,36,34,32,98,97,80,30.03,29.94,14,7,14,0.50
2013-4-3,52,42,34,34,28,24,90,61,38,30.02,29.93,21,6,21,0.00
2013-4-4,57,46,37,39,34,27,99,69,37,29.93,29.85,16,3,16,0.09
2013-4-5,73,55,36,39,32,24,80,46,17,29.98,29.79,10,3,10,0.00
2013-4-6,75,62,53,48,43,34,69,50,34,29.79,29.60,24,8,24,0.00
2013-4-7,79,65,53,59,54,48,95,69,45,29.73,29.57,21,5,21,0.00
2013-4-8,72,65,58,61,58,54,99,80,69,29.63,29.52,17,6,17,0.08
2013-4-9,81,73,64,64,61,58,82,66,51,29.61,29.54,20,7,20,0.08
2013-4-10,72,45,0,64,46,38,99,96,74,29.69,29.52,19,7,19,0.30
2013-4-11,0,0,0,38,38,38,0,0,100,29.54,29.54,0,0,0,0.00
2013-4-16,82,69,0,64,60,38,90,69,53,29.92,29.78,8,4,8,0.00
2013-4-17,84,70,54,70,62,53,99,77,56,29.91,29.60,21,8,21,0.00
2013-4-18,75,44,36,66,42,27,99,90,68,29.91,29.52,30,13,30,3.05
2013-4-19,55,42,32,35,27,22,77,57,31,30.03,29.89,25,11,25,0.00
2013-4-20,69,53,39,42,34,28,81,53,23,30.13,30.02,12,3,12,0.00
2013-4-21,72,59,50,43,38,27,67,47,21,30.20,30.06,19,5,19,0.00
2013-4-22,73,60,43,47,40,33,90,53,24,30.13,29.86,17,5,17,0.00
2013-4-23,63,50,34,56,45,34,99,86,62,30.03,29.77,16,6,16,0.15
2013-4-24,58,42,32,36,30,20,99,68,27,30.23,30.02,17,6,17,0.02
2013-4-25,72,54,32,39,29,19,89,46,14,30.29,30.14,11,3,11,0.00
2013-4-26,58,49,46,49,45,34,99,88,42,30.27,30.05,18,6,18,0.76
2013-4-27,57,52,49,56,51,49,99,98,96,30.06,29.88,14,5,14,0.56
2013-4-28,80,60,48,55,50,46,99,74,32,29.97,29.82,13,3,13,0.00
2013-4-29,85,70,55,62,56,50,90,63,33,29.87,29.73,18,5,18,0.00
2013-4-30,84,72,60,58,52,40,85,54,23,29.83,29.77,18,6,18,0.00
2013-5-1,86,70,57,66,58,51,91,67,40,30.03,29.84,14,4,14,0.00
2013-5-2,62,48,32,59,46,32,99,93,78,30.17,29.99,16,6,16,0.44
2013-5-3,40,36,32,39,35,31,99,97,91,30.13,29.86,21,8,21,0.44
2013-5-4,48,42,34,39,37,34,98,84,69,29.89,29.79,10,4,11,0.70
2013-5-5,61,55,36,50,46,34,93,73,57,30.01,29.88,17,8,17,0.70
2013-5-6,63,58,49,54,51,48,99,80,67,30.02,29.95,11,5,11,0.70
2013-5-7,82,73,49,58,52,47,99,51,30,30.03,29.93,8,2,8,0.70
2013-5-8,82,76,69,61,56,52,66,50,38,29.95,29.87,14,5,14,0.70
2013-5-9,79,68,59,63,60,57,99,78,53,29.91,29.86,17,5,17,1.37
2013-5-10,71,68,56,62,59,56,99,73,63,29.94,29.85,14,7,14,1.68
2013-5-11,68,68,68,58,58,58,70,70,70,29.92,29.92,7,7,8,1.68
2013-5-12,72,61,41,50,41,30,89,53,24,30.21,30.08,11,3,11,0.01
2013-5-13,81,73,50,58,55,47,88,54,41,30.11,30.00,11,5,11,0.02
2013-5-14,88,73,60,60,54,48,75,52,27,30.02,29.92,21,6,21,0.00
2013-5-15,78,68,62,68,60,51,99,79,59,29.96,29.86,21,3,21,0.63
2013-5-16,64,64,64,64,64,64,99,99,99,29.87,29.87,1,1,2,0.63
2013-5-17,80,68,64,66,64,64,99,89,62,29.89,29.84,3,1,3,0.69
2013-5-18,88,75,62,75,69,62,99,84,63,29.89,29.78,14,4,14,0.00
2013-5-19,89,78,71,71,66,60,97,70,41,29.82,29.64,23,6,23,0.00
2013-5-20,78,70,60,71,66,59,99,86,75,29.80,29.67,24,4,30,0.35
2013-5-21,64,60,57,61,59,57,99,97,88,29.84,29.53,24,4,24,1.06
2013-5-22,74,69,53,62,58,52,99,70,58,29.83,29.75,17,8,17,0.01
2013-5-23,73,71,61,61,58,56,87,65,60,30.08,29.83,10,8,17,0.01
2013-5-24,81,74,54,62,58,53,96,60,49,30.22,30.11,11,4,11,0.00
2013-5-25,86,76,68,67,65,57,85,69,52,30.11,30.02,10,3,10,0.00
2013-5-26,84,77,65,67,65,62,95,67,51,30.08,29.94,15,6,15,0.00
2013-5-27,84,74,67,70,66,62,97,77,59,29.96,29.78,19,7,19,0.00
2013-5-28,86,77,71,68,65,63,84,66,54,29.85,29.75,21,8,21,0.00
2013-5-29,81,74,68,69,66,64,88,75,61,29.86,29.73,18,6,18,0.00
2013-5-30,80,69,61,70,65,61,99,87,67,29.82,29.69,26,6,26,0.59
2013-5-31,87,72,62,74,68,61,99,88,61,29.77,29.64,14,5,14,0.01
2013-6-1,78,69,56,73,64,56,99,85,66,29.94,29.67,20,5,20,0.63
2013-6-2,69,59,52,59,55,51,99,87,66,30.00,29.92,11,2,11,0.00
2013-6-3,86,65,47,61,55,46,99,75,35,30.00,29.86,8,2,8,0.00
2013-6-4,81,68,61,69,62,58,91,82,61,29.95,29.87,8,2,8,0.00
2013-6-5,80,70,65,70,64,62,95,84,62,29.92,29.81,20,4,20,0.28
2013-6-6,74,66,57,65,62,57,99,86,64,29.90,29.84,14,3,14,0.28
2013-6-7,80,65,54,61,56,53,99,74,45,29.94,29.86,14,2,14,0.00
2013-6-8,85,75,54,62,59,53,97,59,42,29.92,29.81,10,3,10,0.00
2013-6-9,83,72,65,70,62,57,96,73,44,29.88,29.80,14,3,14,0.06
2013-6-10,92,78,67,73,66,61,83,68,42,29.89,29.81,18,4,18,0.06
2013-6-11,94,82,70,71,68,62,87,65,38,29.98,29.88,14,3,14,0.00
2013-6-12,92,81,71,72,70,66,93,71,47,29.96,29.86,20,6,20,0.00
2013-6-13,91,76,69,72,69,65,97,81,43,29.99,29.90,9,3,9,0.00
2013-6-14,95,79,67,76,70,66,97,77,53,30.00,29.90,10,2,10,0.00
2013-6-15,94,76,68,77,69,64,99,79,52,30.00,29.92,17,3,17,0.13
2013-6-16,93,78,68,74,70,68,99,79,50,29.98,29.87,11,3,11,0.01
2013-6-17,80,73,66,71,68,65,99,85,71,29.93,29.85,10,2,10,0.70
2013-6-18,92,76,62,70,66,61,99,75,42,29.99,29.90,7,2,7,0.00
2013-6-19,91,80,68,69,66,63,93,64,43,30.01,29.93,10,2,10,0.00
2013-6-20,91,79,65,72,68,64,97,72,49,30.05,29.96,12,3,12,0.00
2013-6-21,88,82,73,75,72,70,91,74,63,30.05,29.98,13,5,13,0.00
2013-6-22,92,85,73,73,71,69,88,65,50,30.04,29.92,11,4,11,0.00
2013-6-23,92,81,71,74,70,67,93,72,47,29.98,29.89,16,4,16,0.00
2013-6-24,91,81,72,73,70,68,89,69,49,30.01,29.92,16,4,16,0.00
2013-6-25,89,78,74,72,70,65,89,78,49,29.95,29.84,17,4,17,0.00
2013-6-26,96,83,73,77,72,70,95,72,50,29.91,29.81,17,5,17,0.00
2013-6-27,100,85,72,78,73,70,99,72,42,29.95,29.83,11,2,11,0.00
2013-6-28,92,82,69,76,68,58,91,66,41,29.92,29.80,13,4,13,0.00
2013-6-29,86,80,63,60,56,52,82,45,34,29.85,29.76,21,7,21,0.00
2013-6-30,81,73,59,63,60,57,96,64,46,29.93,29.81,11,4,15,0.00
2013-7-1,82,77,59,61,57,54,99,53,39,29.99,29.91,12,5,12,0.00
2013-10-11,70,70,70,64,63,63,80,79,78,29.53,28.53,0,0,0,0.00
2013-10-12,72,63,0,66,66,65,84,74,81,30.15,30.12,0,0,0,0.65